Toledo Metcalf, OH

7:46 PM EST on November 20, 2019 (GMT -0500)
Metcalf

Weather History for KTDZ - October, 2019

Change the Weather History Date:

Sunday, October 20, 2019

  Actual Average (WUND) Record (WUND)
Temperature  
Mean Temperature 58 °F -  
Max Temperature 70 °F - - (-1)
Min Temperature 48 °F - - (-1)
Degree Days  
Heating Degree Days 6    
Growing Degree Days 8 (Base 50)    
Moisture  
Dew Point 46 °F    
Average Humidity 71    
Maximum Humidity 89    
Minimum Humidity 42    
Precipitation  
Precipitation 0.00 in - - ()
Sea Level Pressure  
Sea Level Pressure 29.89 in    
Wind  
Wind Speed 4 mph ()    
Max Wind Speed 9 mph    
Max Gust Speed -    
Visibility 8.0 miles    
Events      
Averages and records for this station are not official NWS values.
T = Trace of Precipitation, MM = Missing Value Source: Averaged Metar Reports

Daily Weather History Graph

Daily Weather History Graph

Search for Another Location

Airport or City:

Astronomy

Oct. 20, 2019 Rise Set
Actual Time 7:51 AM EDT 6:45 PM EDT
Civil Twilight 7:23 AM EDT 7:13 PM EDT
Nautical Twilight 6:50 AM EDT 7:45 PM EDT
Astronomical Twilight 6:18 AM EDT 8:17 PM EDT
Moon 11:50 PM EDT (10/20) 2:21 PM EDT (10/20)
Length of Visible Light 11h 50m
Length of Day
10h 54m
Waning Gibbous, 59% of the Moon is Illuminated
Oct 20
Waning Gibbous
Oct 21
Last Quarter
Oct 27
New
Nov 4
First Quarter
Nov 12
Full

Hourly Weather History & Observations

Time (EDT) Temp. Dew Point Humidity Pressure Visibility Wind Dir Wind Speed Gust Speed Precip Events Conditions
12:53 AM 48.0 °F 45.0 °F 89% 29.83 in 10.0 mi ESE 5.8 mph - N/A   Clear
1:53 AM 50.0 °F 43.0 °F 77% 29.82 in 10.0 mi SE 5.8 mph - N/A   Mostly Cloudy
2:53 AM 50.0 °F 43.0 °F 77% 29.81 in 10.0 mi SSE 4.6 mph - N/A   Mostly Cloudy
3:53 AM 48.9 °F 43.0 °F 80% 29.81 in 10.0 mi SSE 3.5 mph - N/A   Clear
4:53 AM 48.0 °F 43.0 °F 83% 29.80 in 10.0 mi SE 4.6 mph - N/A   Clear
5:53 AM 48.9 °F 43.0 °F 80% 29.82 in 10.0 mi South 3.5 mph - N/A   Clear
6:53 AM 48.0 °F 43.0 °F 83% 29.83 in 10.0 mi South 3.5 mph - N/A   Scattered Clouds
7:53 AM 48.9 °F 44.1 °F 83% 29.84 in 10.0 mi South 3.5 mph - N/A   Overcast
8:53 AM 50.0 °F 45.0 °F 83% 29.86 in 3.0 mi WSW 3.5 mph - N/A   Haze
9:01 AM 50.0 °F 45.0 °F 83% 29.86 in 2.5 mi SW 3.5 mph - N/A   Haze
9:12 AM 51.1 °F 46.0 °F 83% 29.87 in 6.0 mi SSW 4.6 mph - N/A   Haze
9:53 AM 53.1 °F 46.0 °F 77% 29.88 in 8.0 mi Variable 4.6 mph - N/A   Overcast
10:12 AM 54.0 °F 46.9 °F 77% 29.89 in 2.0 mi WSW 5.8 mph - N/A   Haze
10:39 AM 55.9 °F 48.0 °F 75% 29.89 in 4.0 mi WSW 4.6 mph - N/A   Haze
10:48 AM 57.2 °F 48.2 °F 72% 29.89 in 2.5 mi SSW 4.6 mph - N/A   Haze
10:53 AM 57.0 °F 48.0 °F 72% 29.88 in 7.0 mi South 3.5 mph - N/A   Overcast
11:18 AM 60.1 °F 48.9 °F 67% 29.89 in 2.0 mi WSW 3.5 mph - N/A   Haze
11:35 AM 61.0 °F 48.0 °F 62% 29.90 in 6.0 mi West 9.2 mph - N/A   Haze
11:53 AM 60.1 °F 48.0 °F 64% 29.91 in 10.0 mi NW 8.1 mph - N/A   Overcast
12:53 PM 61.0 °F 46.9 °F 60% 29.91 in 4.0 mi West 5.8 mph - N/A   Haze
1:53 PM 64.9 °F 48.9 °F 56% 29.91 in 10.0 mi NW 8.1 mph - N/A   Overcast
2:53 PM 66.9 °F 48.9 °F 52% 29.90 in 10.0 mi WNW 4.6 mph - N/A   Clear
3:53 PM 69.1 °F 46.0 °F 44% 29.89 in 10.0 mi Calm Calm - N/A   Clear
4:53 PM 69.1 °F 45.0 °F 42% 29.90 in 10.0 mi Calm Calm - N/A   Clear
5:53 PM 69.1 °F 46.0 °F 44% 29.91 in 10.0 mi Calm Calm - N/A   Clear
6:53 PM 62.1 °F 48.0 °F 60% 29.92 in 10.0 mi East 5.8 mph - N/A   Clear
7:53 PM 57.0 °F 46.9 °F 69% 29.94 in 10.0 mi ESE 4.6 mph - N/A   Partly Cloudy
8:53 PM 57.0 °F 46.9 °F 69% 29.96 in 10.0 mi Calm Calm - N/A   Mostly Cloudy
9:53 PM 55.0 °F 46.9 °F 74% 29.97 in 10.0 mi East 3.5 mph - N/A   Mostly Cloudy
10:53 PM 55.0 °F 46.0 °F 72% 29.98 in 10.0 mi East 3.5 mph - N/A   Mostly Cloudy
11:53 PM 52.0 °F 45.0 °F 77% 29.97 in 10.0 mi East 5.8 mph - N/A   Partly Cloudy